Tims Ford Observed Data For Previous 48 Hours

Caption
Day and Hour Reservoir Elevation (behind dam)* Tailwater Elevation (below dam)* Average Hourly Discharge*
5/23/2017 1 AM CDT 888.07 743.74 240
5/23/2017 2 AM CDT 888.08 743.74 240
5/23/2017 3 AM CDT 888.08 743.74 240
5/23/2017 4 AM CDT 888.08 743.74 240
5/23/2017 5 AM CDT 888.09 743.74 240
5/23/2017 6 AM CDT 888.11 743.74 240
5/23/2017 7 AM CDT 888.11 743.78 240
5/23/2017 8 AM CDT 888.13 743.78 240
5/23/2017 9 AM CDT 888.15 743.77 240
5/23/2017 10 AM CDT 888.14 745.54 709
5/23/2017 11 AM CDT 888.13 745.68 980
5/23/2017 12 PM CDT 888.15 745.68 980
5/23/2017 1 PM CDT 888.13 745.77 980
5/23/2017 2 PM CDT 888.13 745.70 980
5/23/2017 3 PM CDT 888.13 745.72 980
5/23/2017 4 PM CDT 888.12 745.73 980
5/23/2017 5 PM CDT 888.13 745.72 980
5/23/2017 6 PM CDT 888.12 745.73 980
5/23/2017 7 PM CDT 888.11 745.71 980
5/23/2017 8 PM CDT 888.12 745.75 980
5/23/2017 9 PM CDT 888.11 745.75 980
5/23/2017 10 PM CDT 888.11 745.70 980
5/23/2017 11 PM CDT 888.11 745.76 980
5/24/2017 12 AM CDT 888.10 745.74 980
5/24/2017 1 AM CDT 888.11 745.76 980
5/24/2017 2 AM CDT 888.10 745.73 980
5/24/2017 3 AM CDT 888.10 745.77 980
5/24/2017 4 AM CDT 888.10 745.68 980
5/24/2017 5 AM CDT 888.09 745.68 980
5/24/2017 6 AM CDT 888.10 745.70 980
5/24/2017 7 AM CDT 888.08 745.68 980
5/24/2017 8 AM CDT 888.10 745.76 980
5/24/2017 9 AM CDT 888.11 745.74 980
5/24/2017 10 AM CDT 888.09 745.74 980
5/24/2017 11 AM CDT 888.11 745.69 980
5/24/2017 12 PM CDT 888.09 745.70 980
5/24/2017 1 PM CDT 888.09 745.68 980
5/24/2017 2 PM CDT 888.10 745.73 980
5/24/2017 3 PM CDT 888.09 745.74 980
5/24/2017 4 PM CDT 888.09 745.69 980
5/24/2017 5 PM CDT 888.09 745.75 980
5/24/2017 6 PM CDT 888.07 745.72 980
5/24/2017 7 PM CDT 888.07 745.76 980
5/24/2017 8 PM CDT 888.07 745.76 980
5/24/2017 9 PM CDT 888.06 745.72 980
5/24/2017 10 PM CDT 888.07 745.70 980
5/24/2017 11 PM CDT 888.07 745.70 980
5/25/2017 12 AM CDT 888.07 745.76 980
5/25/2017 1 AM CDT 888.07 745.68 980
5/25/2017 2 AM CDT 888.07 745.69 980
5/25/2017 3 AM CDT 888.07 745.74 980

Elevations are in feet above sea level. Discharges are in cubic feet per second and are reported at the end of the hour.